User: anonymous   Login
Location: Albany
(35.0000°S, 118.0000°E)
Time: 20:46:22
(UTC-04:00)
Language:

Cosmos 2227 Rocket - Orbit

View from above orbital plane
View from above orbital plane
View from above satellite
View from above satellite

Ground track
Ground track

The orbit data is extracted from the following two-line orbital elements,

1 22285U 92093B   18114.56131105  .00000283  00000-0  17078-3 0  9998
2 22285  71.0208 279.0892 0004169 345.1870  14.9130 14.15021987306582
Epoch (UTC): 24 April 2018 13:28:17
Eccentricity: 0.0004169
inclination: 71.0208°
perigee height: 839 km
apogee height: 845 km
right ascension of ascending node: 279.0892°
argument of perigee: 345.1870°
revolutions per day: 14.15021987
mean anomaly at epoch: 14.9130°
orbit number at epoch: 30658

The dashed part of the orbit path shows where the satellite is in the earth's shadow,  

DLR